Time,TemperatureF,DewpointF,PressureIn,WindDirection,WindDirectionDegrees,WindSpeedMPH,WindSpeedGustMPH,Humidity,HourlyPrecipIn,Conditions,Clouds,dailyrainin,SolarRadiationWatts/m^2,SoftwareType,DateUTC
2013-11-09 00:02:00,50.4,42.4,30.12,WSW,238,0.0,1.0,74,0.00,,,0.00,0.0,meteohub,2013-11-09 08:02:00,
2013-11-09 00:07:00,50.4,42.8,30.12,WSW,238,0.0,1.0,75,0.00,,,0.00,0.0,meteohub,2013-11-09 08:07:00,
2013-11-09 00:12:00,50.2,42.6,30.11,WSW,238,0.0,1.0,75,0.00,,,0.00,0.0,meteohub,2013-11-09 08:12:00,
2013-11-09 00:17:00,50.2,42.6,30.11,WSW,238,0.0,0.0,75,0.00,,,0.00,0.0,meteohub,2013-11-09 08:17:00,
2013-11-09 00:22:00,50.0,42.4,30.11,WSW,238,0.0,0.0,75,0.00,,,0.00,0.0,meteohub,2013-11-09 08:22:00,
2013-11-09 00:27:00,49.8,41.9,30.11,WSW,238,0.0,0.0,74,0.00,,,0.00,0.0,meteohub,2013-11-09 08:27:00,
2013-11-09 00:32:00,49.6,41.4,30.11,WSW,238,0.0,0.0,73,0.00,,,0.00,0.0,meteohub,2013-11-09 08:32:00,
2013-11-09 00:37:00,49.6,41.0,30.11,WSW,238,0.0,1.0,72,0.00,,,0.00,0.0,meteohub,2013-11-09 08:37:00,
2013-11-09 00:42:00,49.6,41.0,30.11,WSW,238,0.0,1.0,72,0.00,,,0.00,0.0,meteohub,2013-11-09 08:42:00,
2013-11-09 00:47:00,49.6,41.0,30.11,WSW,238,0.0,0.0,72,0.00,,,0.00,0.0,meteohub,2013-11-09 08:47:00,
2013-11-09 00:52:00,49.5,40.8,30.11,WSW,238,0.0,1.0,72,0.00,,,0.00,0.0,meteohub,2013-11-09 08:52:00,
2013-11-09 00:57:00,49.5,40.5,30.11,WSW,238,0.0,1.0,71,0.00,,,0.00,0.0,meteohub,2013-11-09 08:57:00,
2013-11-09 01:02:00,49.5,40.8,30.11,WSW,238,0.0,1.0,72,0.00,,,0.00,0.0,meteohub,2013-11-09 09:02:00,
2013-11-09 01:07:00,49.5,40.8,30.11,WSW,238,0.0,1.0,72,0.00,,,0.00,0.0,meteohub,2013-11-09 09:07:00,
2013-11-09 01:12:00,49.5,40.5,30.11,WSW,238,0.0,1.0,71,0.00,,,0.00,0.0,meteohub,2013-11-09 09:12:00,
2013-11-09 01:17:00,49.5,40.1,30.11,WSW,238,0.0,1.0,70,0.00,,,0.00,0.0,meteohub,2013-11-09 09:17:00,
2013-11-09 01:22:00,49.3,39.6,30.11,WSW,238,0.0,0.0,69,0.00,,,0.00,0.0,meteohub,2013-11-09 09:22:00,
2013-11-09 01:27:00,49.3,40.3,30.11,WSW,238,1.0,0.0,71,0.00,,,0.00,0.0,meteohub,2013-11-09 09:27:00,
2013-11-09 01:32:00,49.3,40.3,30.12,WSW,238,0.0,1.0,71,0.00,,,0.00,0.0,meteohub,2013-11-09 09:32:00,
2013-11-09 01:37:00,49.5,39.7,30.12,WSW,238,0.0,1.0,69,0.00,,,0.00,0.0,meteohub,2013-11-09 09:37:00,
2013-11-09 01:42:00,49.5,40.1,30.12,WSW,238,0.0,1.0,70,0.00,,,0.00,0.0,meteohub,2013-11-09 09:42:00,
2013-11-09 01:47:00,49.5,40.5,30.12,WSW,238,0.0,0.0,71,0.00,,,0.00,0.0,meteohub,2013-11-09 09:47:00,
2013-11-09 01:52:00,49.5,40.8,30.12,WSW,238,0.0,1.0,72,0.00,,,0.00,0.0,meteohub,2013-11-09 09:52:00,
2013-11-09 01:57:00,49.5,40.8,30.12,WSW,238,0.0,1.0,72,0.00,,,0.00,0.0,meteohub,2013-11-09 09:57:00,
2013-11-09 02:02:00,49.6,41.4,30.12,WSW,238,0.0,1.0,73,0.00,,,0.00,0.0,meteohub,2013-11-09 10:02:00,
2013-11-09 02:07:00,49.6,41.4,30.12,WSW,238,0.0,0.0,73,0.00,,,0.00,0.0,meteohub,2013-11-09 10:07:00,
2013-11-09 02:12:00,49.5,41.2,30.12,WSW,238,0.0,0.0,73,0.00,,,0.00,0.0,meteohub,2013-11-09 10:12:00,
2013-11-09 02:17:00,49.3,41.0,30.12,WSW,238,0.0,0.0,73,0.00,,,0.00,0.0,meteohub,2013-11-09 10:17:00,
2013-11-09 02:22:00,49.3,40.6,30.12,WSW,238,0.0,0.0,72,0.00,,,0.00,0.0,meteohub,2013-11-09 10:22:00,
2013-11-09 02:27:00,49.1,41.2,30.12,WSW,238,0.0,0.0,74,0.00,,,0.00,0.0,meteohub,2013-11-09 10:27:00,
2013-11-09 02:32:00,48.9,41.4,30.12,WSW,238,0.0,0.0,75,0.00,,,0.00,0.0,meteohub,2013-11-09 10:32:00,
2013-11-09 02:37:00,48.7,41.2,30.12,WSW,238,0.0,0.0,75,0.00,,,0.00,0.0,meteohub,2013-11-09 10:37:00,
2013-11-09 02:42:00,48.7,41.2,30.12,WSW,238,0.0,0.0,75,0.00,,,0.00,0.0,meteohub,2013-11-09 10:42:00,
2013-11-09 02:47:00,48.4,40.5,30.12,WSW,238,0.0,0.0,74,0.00,,,0.00,0.0,meteohub,2013-11-09 10:47:00,
2013-11-09 02:52:00,48.0,40.1,30.12,WSW,238,0.0,0.0,74,0.00,,,0.00,0.0,meteohub,2013-11-09 10:52:00,
2013-11-09 02:57:00,47.8,39.9,30.12,WSW,238,0.0,0.0,74,0.00,,,0.00,0.0,meteohub,2013-11-09 10:57:00,
2013-11-09 03:02:00,47.5,39.9,30.12,WSW,238,0.0,0.0,75,0.00,,,0.00,0.0,meteohub,2013-11-09 11:02:00,
2013-11-09 03:07:00,47.5,40.3,30.12,WSW,238,0.0,1.0,76,0.00,,,0.00,0.0,meteohub,2013-11-09 11:07:00,
2013-11-09 03:12:00,47.5,40.3,30.12,WSW,238,0.0,1.0,76,0.00,,,0.00,0.0,meteohub,2013-11-09 11:12:00,
2013-11-09 03:18:00,47.3,40.1,30.12,WSW,238,0.0,1.0,76,0.00,,,0.00,0.0,meteohub,2013-11-09 11:18:00,
2013-11-09 03:23:00,47.1,39.9,30.12,WSW,238,0.0,0.0,76,0.00,,,0.00,0.0,meteohub,2013-11-09 11:23:00,
2013-11-09 03:28:00,47.3,40.1,30.12,WSW,238,0.0,0.0,76,0.00,,,0.00,0.0,meteohub,2013-11-09 11:28:00,
2013-11-09 03:33:00,47.3,40.1,30.12,WSW,238,0.0,0.0,76,0.00,,,0.00,0.0,meteohub,2013-11-09 11:33:00,
2013-11-09 03:38:00,47.3,40.1,30.12,WSW,238,0.0,0.0,76,0.00,,,0.00,0.0,meteohub,2013-11-09 11:38:00,
2013-11-09 03:43:00,47.3,39.7,30.13,WSW,238,0.0,0.0,75,0.00,,,0.00,0.0,meteohub,2013-11-09 11:43:00,
2013-11-09 03:48:00,47.1,39.6,30.13,WSW,238,0.0,0.0,75,0.00,,,0.00,0.0,meteohub,2013-11-09 11:48:00,
2013-11-09 03:53:00,46.9,39.4,30.13,WSW,238,0.0,0.0,75,0.00,,,0.00,0.0,meteohub,2013-11-09 11:53:00,
2013-11-09 03:58:00,46.9,39.7,30.13,WSW,238,0.0,0.0,76,0.00,,,0.00,0.0,meteohub,2013-11-09 11:58:00,
2013-11-09 04:03:00,46.9,39.7,30.12,WSW,238,0.0,0.0,76,0.00,,,0.00,0.0,meteohub,2013-11-09 12:03:00,
2013-11-09 04:08:00,46.9,39.7,30.12,WSW,238,0.0,0.0,76,0.00,,,0.00,0.0,meteohub,2013-11-09 12:08:00,
2013-11-09 04:13:00,46.9,39.7,30.12,WSW,238,0.0,0.0,76,0.00,,,0.00,0.0,meteohub,2013-11-09 12:13:00,
2013-11-09 04:18:00,46.9,40.1,30.12,WSW,238,0.0,1.0,77,0.00,,,0.00,0.0,meteohub,2013-11-09 12:18:00,
2013-11-09 04:23:00,46.9,40.1,30.13,WSW,238,0.0,1.0,77,0.00,,,0.00,0.0,meteohub,2013-11-09 12:23:00,
2013-11-09 04:28:00,46.9,40.1,30.12,WSW,238,0.0,0.0,77,0.00,,,0.00,0.0,meteohub,2013-11-09 12:28:00,
2013-11-09 04:33:00,47.1,40.6,30.12,WSW,238,0.0,0.0,78,0.00,,,0.00,0.0,meteohub,2013-11-09 12:33:00,
2013-11-09 04:38:00,47.1,40.3,30.12,WSW,238,0.0,1.0,77,0.00,,,0.00,0.0,meteohub,2013-11-09 12:38:00,
2013-11-09 04:43:00,47.3,40.8,30.12,WSW,238,0.0,1.0,78,0.00,,,0.00,0.0,meteohub,2013-11-09 12:43:00,
2013-11-09 04:48:00,47.5,41.0,30.12,WSW,238,0.0,1.0,78,0.00,,,0.00,0.0,meteohub,2013-11-09 12:48:00,
2013-11-09 04:53:00,47.5,41.0,30.12,WSW,238,0.0,1.0,78,0.00,,,0.00,0.0,meteohub,2013-11-09 12:53:00,
2013-11-09 04:58:00,47.7,41.2,30.13,WSW,238,0.0,1.0,78,0.00,,,0.00,0.0,meteohub,2013-11-09 12:58:00,
2013-11-09 05:03:00,47.8,41.4,30.13,WSW,238,0.0,0.0,78,0.00,,,0.00,0.0,meteohub,2013-11-09 13:03:00,
2013-11-09 05:08:00,48.0,41.9,30.13,WSW,238,0.0,0.0,79,0.00,,,0.00,0.0,meteohub,2013-11-09 13:08:00,
2013-11-09 05:13:00,48.2,42.1,30.13,WSW,238,0.0,0.0,79,0.00,,,0.00,0.0,meteohub,2013-11-09 13:13:00,
2013-11-09 05:18:00,48.6,42.1,30.13,WSW,238,0.0,0.0,78,0.00,,,0.00,0.0,meteohub,2013-11-09 13:18:00,
2013-11-09 05:23:00,48.7,42.3,30.13,WSW,238,0.0,1.0,78,0.00,,,0.00,0.0,meteohub,2013-11-09 13:23:00,
2013-11-09 05:28:00,48.9,42.4,30.13,WSW,238,0.0,1.0,78,0.00,,,0.00,0.0,meteohub,2013-11-09 13:28:00,
2013-11-09 05:34:00,49.1,42.3,30.13,WSW,238,0.0,1.0,77,0.00,,,0.00,0.0,meteohub,2013-11-09 13:34:00,
2013-11-09 05:39:00,49.3,42.4,30.13,WSW,238,0.0,0.0,77,0.00,,,0.00,0.0,meteohub,2013-11-09 13:39:00,
2013-11-09 05:44:00,49.5,42.6,30.13,WSW,238,0.0,0.0,77,0.00,,,0.00,0.0,meteohub,2013-11-09 13:44:00,
2013-11-09 05:49:00,49.8,43.0,30.13,WSW,238,0.0,1.0,77,0.00,,,0.00,0.0,meteohub,2013-11-09 13:49:00,
2013-11-09 05:54:00,50.4,43.3,30.13,WSW,238,0.0,1.0,77,0.00,,,0.00,0.0,meteohub,2013-11-09 13:54:00,
2013-11-09 05:59:00,50.7,43.2,30.13,WSW,238,0.0,1.0,75,0.00,,,0.00,0.0,meteohub,2013-11-09 13:59:00,
2013-11-09 06:04:00,51.1,43.2,30.13,WSW,238,0.0,1.0,74,0.00,,,0.00,0.0,meteohub,2013-11-09 14:04:00,
2013-11-09 06:09:00,51.6,43.5,30.13,WSW,238,0.0,0.0,74,0.00,,,0.00,0.0,meteohub,2013-11-09 14:09:00,
2013-11-09 06:14:00,52.2,43.7,30.13,WSW,238,0.0,0.0,73,0.00,,,0.00,0.0,meteohub,2013-11-09 14:14:00,
2013-11-09 06:19:00,52.5,43.7,30.13,WSW,238,0.0,0.0,72,0.00,,,0.00,0.0,meteohub,2013-11-09 14:19:00,
2013-11-09 06:24:00,52.5,43.0,30.13,WSW,238,0.0,0.0,70,0.00,,,0.00,0.0,meteohub,2013-11-09 14:24:00,
2013-11-09 06:29:00,52.5,43.3,30.13,WSW,238,0.0,1.0,71,0.00,,,0.00,0.0,meteohub,2013-11-09 14:29:00,
2013-11-09 06:34:00,52.5,43.0,30.13,WSW,238,0.0,1.0,70,0.00,,,0.00,0.0,meteohub,2013-11-09 14:34:00,
2013-11-09 06:39:00,52.3,42.8,30.14,WSW,238,0.0,1.0,70,0.00,,,0.00,0.0,meteohub,2013-11-09 14:39:00,
2013-11-09 06:44:00,52.3,42.8,30.14,WSW,238,0.0,1.0,70,0.00,,,0.00,0.0,meteohub,2013-11-09 14:44:00,
2013-11-09 06:49:00,52.2,42.6,30.14,WSW,238,0.0,1.0,70,0.00,,,0.00,0.0,meteohub,2013-11-09 14:49:00,
2013-11-09 06:54:00,52.0,42.8,30.14,WSW,238,0.0,1.0,71,0.00,,,0.00,5.0,meteohub,2013-11-09 14:54:00,
2013-11-09 06:59:00,51.8,42.6,30.14,WSW,238,0.0,0.0,71,0.00,,,0.00,7.0,meteohub,2013-11-09 14:59:00,
2013-11-09 07:04:00,51.8,43.0,30.14,WSW,238,0.0,0.0,72,0.00,,,0.00,9.0,meteohub,2013-11-09 15:04:00,
2013-11-09 07:09:00,51.8,43.0,30.14,WSW,238,0.0,0.0,72,0.00,,,0.00,9.0,meteohub,2013-11-09 15:09:00,
2013-11-09 07:14:00,51.6,43.0,30.14,WSW,238,0.0,0.0,72,0.00,,,0.00,11.0,meteohub,2013-11-09 15:14:00,
2013-11-09 07:19:00,51.6,43.3,30.14,WSW,238,0.0,0.0,73,0.00,,,0.00,12.0,meteohub,2013-11-09 15:19:00,
2013-11-09 07:24:00,52.0,43.5,30.15,WSW,238,0.0,1.0,73,0.00,,,0.00,12.0,meteohub,2013-11-09 15:24:00,
2013-11-09 07:29:00,52.2,43.3,30.14,WSW,238,0.0,1.0,72,0.00,,,0.00,12.0,meteohub,2013-11-09 15:29:00,
2013-11-09 07:34:00,52.3,43.5,30.15,WSW,238,0.0,1.0,72,0.00,,,0.00,14.0,meteohub,2013-11-09 15:34:00,
2013-11-09 07:40:00,52.5,43.3,30.15,WSW,238,0.0,1.0,71,0.00,,,0.00,14.0,meteohub,2013-11-09 15:40:00,
2013-11-09 07:45:00,52.7,43.5,30.15,WSW,238,0.0,1.0,71,0.00,,,0.00,16.0,meteohub,2013-11-09 15:45:00,
2013-11-09 07:50:00,52.9,43.7,30.15,WSW,238,0.0,1.0,71,0.00,,,0.00,16.0,meteohub,2013-11-09 15:50:00,
2013-11-09 07:55:00,53.1,43.5,30.15,WSW,238,0.0,1.0,70,0.00,,,0.00,16.0,meteohub,2013-11-09 15:55:00,
2013-11-09 08:00:00,53.2,43.7,30.15,WSW,238,0.0,1.0,70,0.00,,,0.00,18.0,meteohub,2013-11-09 16:00:00,
2013-11-09 08:05:00,53.2,43.7,30.15,WSW,238,0.0,1.0,70,0.00,,,0.00,18.0,meteohub,2013-11-09 16:05:00,
2013-11-09 08:10:00,53.4,43.9,30.15,ESE,114,1.0,2.0,70,0.00,,,0.00,18.0,meteohub,2013-11-09 16:10:00,
2013-11-09 08:15:00,53.4,43.9,30.15,ESE,114,0.0,2.0,70,0.00,,,0.00,18.0,meteohub,2013-11-09 16:15:00,
2013-11-09 08:20:00,53.6,43.7,30.16,ESE,114,0.0,2.0,69,0.00,,,0.00,19.0,meteohub,2013-11-09 16:20:00,
2013-11-09 08:25:00,53.8,43.9,30.16,ESE,114,0.0,2.0,69,0.00,,,0.00,19.0,meteohub,2013-11-09 16:25:00,
2013-11-09 08:30:00,53.8,43.9,30.16,ESE,114,0.0,2.0,69,0.00,,,0.00,19.0,meteohub,2013-11-09 16:30:00,
2013-11-09 08:35:00,53.8,43.9,30.16,ESE,114,0.0,2.0,69,0.00,,,0.00,21.0,meteohub,2013-11-09 16:35:00,
2013-11-09 08:40:00,54.0,44.1,30.16,East,101,0.0,2.0,69,0.00,,,0.00,21.0,meteohub,2013-11-09 16:40:00,
2013-11-09 08:45:00,54.1,44.2,30.16,East,101,0.0,3.0,69,0.00,,,0.00,21.0,meteohub,2013-11-09 16:45:00,
2013-11-09 08:50:00,54.3,44.1,30.16,East,101,0.0,3.0,68,0.00,,,0.00,21.0,meteohub,2013-11-09 16:50:00,
2013-11-09 08:55:00,54.7,44.2,30.16,East,101,1.0,2.0,68,0.00,,,0.00,23.0,meteohub,2013-11-09 16:55:00,
2013-11-09 09:00:00,55.0,44.2,30.16,East,80,0.0,2.0,67,0.00,,,0.00,23.0,meteohub,2013-11-09 17:00:00,
2013-11-09 09:05:00,55.2,44.4,30.16,East,80,0.0,3.0,67,0.00,,,0.00,25.0,meteohub,2013-11-09 17:05:00,
2013-11-09 09:10:00,55.6,44.4,30.16,East,80,0.0,3.0,66,0.00,,,0.00,26.0,meteohub,2013-11-09 17:10:00,
2013-11-09 09:15:00,55.6,44.4,30.16,East,80,0.0,3.0,66,0.00,,,0.00,32.0,meteohub,2013-11-09 17:15:00,
2013-11-09 09:20:00,55.8,44.2,30.16,East,80,1.0,2.0,65,0.00,,,0.00,142.0,meteohub,2013-11-09 17:20:00,
2013-11-09 09:25:00,55.9,44.4,30.16,East,80,0.0,2.0,65,0.00,,,0.00,283.0,meteohub,2013-11-09 17:25:00,
2013-11-09 09:31:00,56.3,44.6,30.16,ENE,71,1.0,2.0,65,0.00,,,0.00,353.0,meteohub,2013-11-09 17:31:00,
2013-11-09 09:36:00,56.7,45.0,30.16,ENE,67,0.0,3.0,65,0.00,,,0.00,294.0,meteohub,2013-11-09 17:36:00,
2013-11-09 09:41:00,57.0,45.0,30.16,ENE,67,0.0,3.0,64,0.00,,,0.00,202.0,meteohub,2013-11-09 17:41:00,
2013-11-09 09:46:00,57.6,45.1,30.17,ENE,63,0.0,2.0,63,0.00,,,0.00,394.0,meteohub,2013-11-09 17:46:00,
2013-11-09 09:51:00,57.9,45.0,30.17,ENE,78,0.0,3.0,62,0.00,,,0.00,406.0,meteohub,2013-11-09 17:51:00,
2013-11-09 09:56:00,58.5,45.1,30.17,ENE,78,0.0,3.0,61,0.00,,,0.00,417.0,meteohub,2013-11-09 17:56:00,
2013-11-09 10:01:00,59.0,45.5,30.17,ENE,71,0.0,3.0,61,0.00,,,0.00,427.0,meteohub,2013-11-09 18:01:00,
2013-11-09 10:06:00,59.5,45.1,30.17,NNE,22,0.0,4.0,59,0.00,,,0.00,432.0,meteohub,2013-11-09 18:06:00,
2013-11-09 10:11:00,60.1,45.3,30.17,ENE,65,0.0,4.0,58,0.00,,,0.00,443.0,meteohub,2013-11-09 18:11:00,
2013-11-09 10:16:00,60.3,45.0,30.17,ENE,63,0.0,6.0,57,0.00,,,0.00,404.0,meteohub,2013-11-09 18:16:00,
2013-11-09 10:21:00,60.4,45.1,30.17,ENE,61,4.0,6.0,57,0.00,,,0.00,469.0,meteohub,2013-11-09 18:21:00,
2013-11-09 10:26:00,60.6,45.3,30.16,ENE,62,3.0,6.0,57,0.00,,,0.00,480.0,meteohub,2013-11-09 18:26:00,
2013-11-09 10:31:00,60.6,44.8,30.16,ENE,68,4.0,5.0,56,0.00,,,0.00,492.0,meteohub,2013-11-09 18:31:00,
2013-11-09 10:36:00,61.0,45.7,30.16,ENE,74,3.0,5.0,57,0.00,,,0.00,503.0,meteohub,2013-11-09 18:36:00,
2013-11-09 10:41:00,61.3,45.5,30.16,ENE,73,0.0,4.0,56,0.00,,,0.00,515.0,meteohub,2013-11-09 18:41:00,
2013-11-09 10:46:00,62.1,45.1,30.16,ENE,61,2.0,4.0,54,0.00,,,0.00,531.0,meteohub,2013-11-09 18:46:00,
2013-11-09 10:52:00,62.4,45.5,30.16,ENE,66,1.0,4.0,54,0.00,,,0.00,554.0,meteohub,2013-11-09 18:52:00,
2013-11-09 10:57:00,63.0,45.5,30.16,ENE,63,1.0,4.0,53,0.00,,,0.00,418.0,meteohub,2013-11-09 18:57:00,
2013-11-09 11:02:00,63.1,45.7,30.15,ENE,65,2.0,4.0,53,0.00,,,0.00,346.0,meteohub,2013-11-09 19:02:00,
2013-11-09 11:07:00,63.1,45.7,30.15,ENE,67,0.0,4.0,53,0.00,,,0.00,362.0,meteohub,2013-11-09 19:07:00,
2013-11-09 11:12:00,63.1,45.7,30.15,ENE,72,1.0,4.0,53,0.00,,,0.00,283.0,meteohub,2013-11-09 19:12:00,
2013-11-09 11:17:00,63.1,45.7,30.15,ENE,75,1.0,4.0,53,0.00,,,0.00,178.0,meteohub,2013-11-09 19:17:00,
2013-11-09 11:22:00,63.1,45.7,30.15,ENE,75,0.0,3.0,53,0.00,,,0.00,320.0,meteohub,2013-11-09 19:22:00,
2013-11-09 11:27:00,63.3,45.9,30.14,ENE,75,0.0,3.0,53,0.00,,,0.00,448.0,meteohub,2013-11-09 19:27:00,
2013-11-09 11:32:00,63.9,45.9,30.14,ENE,74,1.0,2.0,52,0.00,,,0.00,545.0,meteohub,2013-11-09 19:32:00,
2013-11-09 11:37:00,64.2,46.2,30.14,NNE,12,0.0,4.0,52,0.00,,,0.00,598.0,meteohub,2013-11-09 19:37:00,
2013-11-09 11:42:00,64.8,46.2,30.14,NE,49,1.0,4.0,51,0.00,,,0.00,559.0,meteohub,2013-11-09 19:42:00,
2013-11-09 11:47:00,64.9,45.9,30.14,ENE,61,2.0,4.0,50,0.00,,,0.00,497.0,meteohub,2013-11-09 19:47:00,
2013-11-09 11:52:00,65.3,46.2,30.14,WSW,237,0.0,3.0,50,0.00,,,0.00,578.0,meteohub,2013-11-09 19:52:00,
2013-11-09 11:57:00,65.7,46.0,30.14,ENE,73,1.0,3.0,49,0.00,,,0.00,566.0,meteohub,2013-11-09 19:57:00,
2013-11-09 12:02:00,65.8,46.2,30.14,ENE,74,1.0,3.0,49,0.00,,,0.00,563.0,meteohub,2013-11-09 20:02:00,
2013-11-09 12:07:00,66.0,46.4,30.14,ENE,76,2.0,4.0,49,0.00,,,0.00,559.0,meteohub,2013-11-09 20:07:00,
2013-11-09 12:12:00,66.0,46.4,30.14,ENE,69,1.0,4.0,49,0.00,,,0.00,555.0,meteohub,2013-11-09 20:12:00,
2013-11-09 12:17:00,66.4,46.0,30.13,ENE,71,0.0,5.0,48,0.00,,,0.00,554.0,meteohub,2013-11-09 20:17:00,
2013-11-09 12:22:00,66.7,46.4,30.13,NNW,328,3.0,5.0,48,0.00,,,0.00,552.0,meteohub,2013-11-09 20:22:00,
2013-11-09 12:27:00,67.1,46.2,30.13,ENE,69,1.0,4.0,47,0.00,,,0.00,550.0,meteohub,2013-11-09 20:27:00,
2013-11-09 12:32:00,67.3,46.4,30.13,ENE,75,3.0,4.0,47,0.00,,,0.00,547.0,meteohub,2013-11-09 20:32:00,
2013-11-09 12:37:00,67.5,46.6,30.13,ENE,78,1.0,4.0,47,0.00,,,0.00,543.0,meteohub,2013-11-09 20:37:00,
2013-11-09 12:42:00,67.8,46.2,30.13,ENE,67,1.0,4.0,46,0.00,,,0.00,541.0,meteohub,2013-11-09 20:42:00,
2013-11-09 12:47:00,68.0,46.4,30.13,ENE,69,1.0,3.0,46,0.00,,,0.00,538.0,meteohub,2013-11-09 20:47:00,
2013-11-09 12:52:00,68.2,46.6,30.12,ENE,64,0.0,5.0,46,0.00,,,0.00,536.0,meteohub,2013-11-09 20:52:00,
2013-11-09 12:57:00,68.4,46.2,30.12,ENE,76,0.0,5.0,45,0.00,,,0.00,531.0,meteohub,2013-11-09 20:57:00,
2013-11-09 13:02:00,68.7,46.6,30.12,ENE,76,2.0,5.0,45,0.00,,,0.00,527.0,meteohub,2013-11-09 21:02:00,
2013-11-09 13:07:00,68.9,46.8,30.12,ENE,73,0.0,4.0,45,0.00,,,0.00,524.0,meteohub,2013-11-09 21:07:00,
2013-11-09 13:12:00,69.1,46.2,30.12,ENE,69,2.0,4.0,44,0.00,,,0.00,517.0,meteohub,2013-11-09 21:12:00,
2013-11-09 13:17:00,69.3,46.4,30.12,ENE,67,1.0,4.0,44,0.00,,,0.00,512.0,meteohub,2013-11-09 21:17:00,
2013-11-09 13:22:00,69.3,46.4,30.12,ENE,68,2.0,4.0,44,0.00,,,0.00,504.0,meteohub,2013-11-09 21:22:00,
2013-11-09 13:27:00,69.4,46.6,30.12,ENE,67,2.0,4.0,44,0.00,,,0.00,499.0,meteohub,2013-11-09 21:27:00,
2013-11-09 13:32:00,69.4,46.6,30.12,ENE,71,1.0,3.0,44,0.00,,,0.00,490.0,meteohub,2013-11-09 21:32:00,
2013-11-09 13:37:00,69.8,46.9,30.12,ENE,71,1.0,3.0,44,0.00,,,0.00,487.0,meteohub,2013-11-09 21:37:00,
2013-11-09 13:42:00,70.2,46.6,30.12,ENE,71,2.0,3.0,43,0.00,,,0.00,480.0,meteohub,2013-11-09 21:42:00,
2013-11-09 13:47:00,70.3,46.8,30.12,ENE,67,1.0,3.0,43,0.00,,,0.00,469.0,meteohub,2013-11-09 21:47:00,
2013-11-09 13:52:00,70.5,46.9,30.12,ENE,67,1.0,3.0,43,0.00,,,0.00,462.0,meteohub,2013-11-09 21:52:00,
2013-11-09 13:57:00,70.5,46.4,30.12,ENE,74,2.0,3.0,42,0.00,,,0.00,454.0,meteohub,2013-11-09 21:57:00,
2013-11-09 14:02:00,70.7,46.4,30.12,ENE,77,1.0,4.0,42,0.00,,,0.00,445.0,meteohub,2013-11-09 22:02:00,
2013-11-09 14:07:00,71.1,46.8,30.11,NE,47,0.0,4.0,42,0.00,,,0.00,434.0,meteohub,2013-11-09 22:07:00,
2013-11-09 14:12:00,71.1,46.8,30.12,NE,54,0.0,4.0,42,0.00,,,0.00,424.0,meteohub,2013-11-09 22:12:00,
2013-11-09 14:17:00,71.1,46.8,30.11,ENE,61,2.0,4.0,42,0.00,,,0.00,415.0,meteohub,2013-11-09 22:17:00,
2013-11-09 14:22:00,71.1,46.8,30.11,ENE,76,2.0,3.0,42,0.00,,,0.00,404.0,meteohub,2013-11-09 22:22:00,
2013-11-09 14:27:00,71.2,46.4,30.11,East,79,2.0,4.0,41,0.00,,,0.00,394.0,meteohub,2013-11-09 22:27:00,
2013-11-09 14:32:00,71.2,46.4,30.11,East,79,0.0,4.0,41,0.00,,,0.00,376.0,meteohub,2013-11-09 22:32:00,
2013-11-09 14:37:00,71.4,46.6,30.11,ENE,78,1.0,3.0,41,0.00,,,0.00,345.0,meteohub,2013-11-09 22:37:00,
2013-11-09 14:42:00,71.6,46.6,30.11,ENE,77,0.0,3.0,41,0.00,,,0.00,353.0,meteohub,2013-11-09 22:42:00,
2013-11-09 14:47:00,71.8,46.8,30.11,ENE,76,0.0,3.0,41,0.00,,,0.00,330.0,meteohub,2013-11-09 22:47:00,
2013-11-09 14:52:00,71.8,46.2,30.11,ENE,76,1.0,3.0,40,0.00,,,0.00,325.0,meteohub,2013-11-09 22:52:00,
2013-11-09 14:57:00,71.8,46.2,30.11,ENE,76,0.0,3.0,40,0.00,,,0.00,243.0,meteohub,2013-11-09 22:57:00,
2013-11-09 15:02:00,71.6,46.0,30.11,ENE,76,1.0,3.0,40,0.00,,,0.00,269.0,meteohub,2013-11-09 23:02:00,
2013-11-09 15:07:00,71.4,46.6,30.11,ENE,76,1.0,3.0,41,0.00,,,0.00,262.0,meteohub,2013-11-09 23:07:00,
2013-11-09 15:12:00,71.4,45.9,30.11,NNE,28,0.0,3.0,40,0.00,,,0.00,276.0,meteohub,2013-11-09 23:12:00,
2013-11-09 15:17:00,71.6,46.6,30.11,NNE,27,0.0,2.0,41,0.00,,,0.00,250.0,meteohub,2013-11-09 23:17:00,
2013-11-09 15:22:00,71.8,46.2,30.11,ENE,63,1.0,2.0,40,0.00,,,0.00,244.0,meteohub,2013-11-09 23:22:00,
2013-11-09 15:27:00,71.6,46.6,30.11,ENE,63,0.0,3.0,41,0.00,,,0.00,227.0,meteohub,2013-11-09 23:27:00,
2013-11-09 15:32:00,71.4,46.6,30.11,ENE,63,0.0,3.0,41,0.00,,,0.00,223.0,meteohub,2013-11-09 23:32:00,
2013-11-09 15:37:00,71.4,46.6,30.11,ENE,63,0.0,3.0,41,0.00,,,0.00,209.0,meteohub,2013-11-09 23:37:00,
2013-11-09 15:42:00,71.6,46.6,30.11,ENE,63,0.0,2.0,41,0.00,,,0.00,197.0,meteohub,2013-11-09 23:42:00,
2013-11-09 15:47:00,71.4,46.6,30.11,ENE,63,0.0,3.0,41,0.00,,,0.00,174.0,meteohub,2013-11-09 23:47:00,
2013-11-09 15:52:00,71.4,46.6,30.11,ENE,63,0.0,3.0,41,0.00,,,0.00,155.0,meteohub,2013-11-09 23:52:00,
2013-11-09 15:57:00,71.4,46.6,30.10,ENE,63,0.0,3.0,41,0.00,,,0.00,135.0,meteohub,2013-11-09 23:57:00,
2013-11-09 16:02:00,71.6,46.6,30.11,ENE,63,1.0,1.0,41,0.00,,,0.00,120.0,meteohub,2013-11-10 00:02:00,
2013-11-09 16:07:00,71.4,46.6,30.11,ENE,63,1.0,1.0,41,0.00,,,0.00,91.0,meteohub,2013-11-10 00:07:00,
2013-11-09 16:12:00,71.2,46.4,30.11,ENE,63,0.0,1.0,41,0.00,,,0.00,100.0,meteohub,2013-11-10 00:12:00,
2013-11-09 16:17:00,71.2,46.9,30.11,ENE,63,0.0,1.0,42,0.00,,,0.00,58.0,meteohub,2013-11-10 00:17:00,
2013-11-09 16:22:00,71.2,46.9,30.11,ENE,63,0.0,1.0,42,0.00,,,0.00,46.0,meteohub,2013-11-10 00:22:00,
2013-11-09 16:27:00,71.1,46.8,30.11,ENE,63,0.0,1.0,42,0.00,,,0.00,42.0,meteohub,2013-11-10 00:27:00,
2013-11-09 16:32:00,70.9,46.6,30.11,ENE,63,0.0,1.0,42,0.00,,,0.00,37.0,meteohub,2013-11-10 00:32:00,
2013-11-09 16:37:00,70.5,46.4,30.11,ENE,63,0.0,0.0,42,0.00,,,0.00,26.0,meteohub,2013-11-10 00:37:00,
2013-11-09 16:42:00,70.2,46.0,30.11,ENE,63,0.0,0.0,42,0.00,,,0.00,23.0,meteohub,2013-11-10 00:42:00,
2013-11-09 16:47:00,70.0,46.4,30.11,ENE,63,0.0,0.0,43,0.00,,,0.00,14.0,meteohub,2013-11-10 00:47:00,
2013-11-09 16:52:00,69.6,46.2,30.11,ENE,63,0.0,0.0,43,0.00,,,0.00,9.0,meteohub,2013-11-10 00:52:00,
2013-11-09 16:57:00,69.3,46.4,30.11,ENE,63,0.0,0.0,44,0.00,,,0.00,7.0,meteohub,2013-11-10 00:57:00,
2013-11-09 17:02:00,68.9,46.0,30.11,ENE,63,0.0,0.0,44,0.00,,,0.00,0.0,meteohub,2013-11-10 01:02:00,
2013-11-09 17:07:00,68.5,46.4,30.11,ENE,63,0.0,0.0,45,0.00,,,0.00,0.0,meteohub,2013-11-10 01:07:00,
2013-11-09 17:12:00,67.8,45.7,30.11,ENE,63,0.0,0.0,45,0.00,,,0.00,0.0,meteohub,2013-11-10 01:12:00,
2013-11-09 17:17:00,67.3,45.9,30.11,ENE,63,0.0,0.0,46,0.00,,,0.00,0.0,meteohub,2013-11-10 01:17:00,
2013-11-09 17:22:00,66.6,45.7,30.11,ENE,63,0.0,0.0,47,0.00,,,0.00,0.0,meteohub,2013-11-10 01:22:00,
2013-11-09 17:27:00,65.8,45.7,30.11,ENE,63,0.0,0.0,48,0.00,,,0.00,0.0,meteohub,2013-11-10 01:27:00,
2013-11-09 17:32:00,65.5,45.3,30.11,ENE,63,0.0,0.0,48,0.00,,,0.00,0.0,meteohub,2013-11-10 01:32:00,
2013-11-09 17:37:00,64.9,45.3,30.12,ENE,63,0.0,0.0,49,0.00,,,0.00,0.0,meteohub,2013-11-10 01:37:00,
2013-11-09 17:42:00,64.6,45.5,30.12,ENE,63,0.0,0.0,50,0.00,,,0.00,0.0,meteohub,2013-11-10 01:42:00,
2013-11-09 17:47:00,64.4,45.3,30.12,ENE,63,0.0,0.0,50,0.00,,,0.00,0.0,meteohub,2013-11-10 01:47:00,
2013-11-09 17:52:00,64.0,45.0,30.12,ENE,63,0.0,0.0,50,0.00,,,0.00,0.0,meteohub,2013-11-10 01:52:00,
2013-11-09 17:57:00,63.7,45.1,30.12,ENE,63,0.0,0.0,51,0.00,,,0.00,0.0,meteohub,2013-11-10 01:57:00,
2013-11-09 18:02:00,63.1,45.1,30.12,ENE,63,0.0,0.0,52,0.00,,,0.00,0.0,meteohub,2013-11-10 02:02:00,
2013-11-09 18:07:00,62.8,45.3,30.12,ENE,63,0.0,0.0,53,0.00,,,0.00,0.0,meteohub,2013-11-10 02:07:00,
2013-11-09 18:12:00,62.4,44.6,30.12,ENE,63,0.0,0.0,52,0.00,,,0.00,0.0,meteohub,2013-11-10 02:12:00,
2013-11-09 18:17:00,62.2,45.0,30.13,ENE,63,0.0,0.0,53,0.00,,,0.00,0.0,meteohub,2013-11-10 02:17:00,
2013-11-09 18:22:00,61.9,44.6,30.13,ENE,63,0.0,0.0,53,0.00,,,0.00,0.0,meteohub,2013-11-10 02:22:00,
2013-11-09 18:27:00,61.3,45.0,30.13,ENE,63,0.0,0.0,55,0.00,,,0.00,0.0,meteohub,2013-11-10 02:27:00,
2013-11-09 18:32:00,61.0,45.1,30.13,ENE,63,0.0,0.0,56,0.00,,,0.00,0.0,meteohub,2013-11-10 02:32:00,
2013-11-09 18:37:00,60.4,44.6,30.14,ENE,63,0.0,0.0,56,0.00,,,0.00,0.0,meteohub,2013-11-10 02:37:00,
2013-11-09 18:42:00,60.3,45.0,30.13,ENE,63,0.0,0.0,57,0.00,,,0.00,0.0,meteohub,2013-11-10 02:42:00,
2013-11-09 18:47:00,59.7,45.0,30.14,ENE,63,0.0,0.0,58,0.00,,,0.00,0.0,meteohub,2013-11-10 02:47:00,
2013-11-09 18:52:00,59.4,44.6,30.14,ENE,63,0.0,0.0,58,0.00,,,0.00,0.0,meteohub,2013-11-10 02:52:00,
2013-11-09 18:57:00,59.0,44.2,30.14,ENE,63,0.0,0.0,58,0.00,,,0.00,0.0,meteohub,2013-11-10 02:57:00,
2013-11-09 19:03:00,58.8,44.6,30.14,ENE,63,0.0,0.0,59,0.00,,,0.00,0.0,meteohub,2013-11-10 03:03:00,
2013-11-09 19:08:00,58.6,44.8,30.14,ENE,63,0.0,0.0,60,0.00,,,0.00,0.0,meteohub,2013-11-10 03:08:00,
2013-11-09 19:13:00,58.3,45.0,30.14,ENE,63,0.0,0.0,61,0.00,,,0.00,0.0,meteohub,2013-11-10 03:13:00,
2013-11-09 19:18:00,57.9,44.6,30.14,ENE,63,0.0,0.0,61,0.00,,,0.00,0.0,meteohub,2013-11-10 03:18:00,
2013-11-09 19:23:00,57.7,44.8,30.14,ENE,63,0.0,0.0,62,0.00,,,0.00,0.0,meteohub,2013-11-10 03:23:00,
2013-11-09 19:28:00,57.6,45.1,30.14,ENE,63,0.0,0.0,63,0.00,,,0.00,0.0,meteohub,2013-11-10 03:28:00,
2013-11-09 19:33:00,57.4,45.0,30.14,ENE,63,0.0,0.0,63,0.00,,,0.00,0.0,meteohub,2013-11-10 03:33:00,
2013-11-09 19:38:00,57.2,45.1,30.14,ENE,63,0.0,0.0,64,0.00,,,0.00,0.0,meteohub,2013-11-10 03:38:00,
2013-11-09 19:43:00,57.0,45.0,30.14,ENE,63,0.0,0.0,64,0.00,,,0.00,0.0,meteohub,2013-11-10 03:43:00,
2013-11-09 19:48:00,56.8,44.8,30.14,ENE,63,0.0,0.0,64,0.00,,,0.00,0.0,meteohub,2013-11-10 03:48:00,
2013-11-09 19:53:00,56.7,44.6,30.14,ENE,63,0.0,0.0,64,0.00,,,0.00,0.0,meteohub,2013-11-10 03:53:00,
2013-11-09 19:58:00,56.5,44.4,30.14,ENE,63,0.0,0.0,64,0.00,,,0.00,0.0,meteohub,2013-11-10 03:58:00,
2013-11-09 20:03:00,56.1,44.1,30.14,ENE,63,0.0,0.0,64,0.00,,,0.00,0.0,meteohub,2013-11-10 04:03:00,
2013-11-09 20:08:00,55.9,43.9,30.14,ENE,63,0.0,0.0,64,0.00,,,0.00,0.0,meteohub,2013-11-10 04:08:00,
2013-11-09 20:13:00,55.8,44.2,30.14,ENE,63,0.0,0.0,65,0.00,,,0.00,0.0,meteohub,2013-11-10 04:13:00,
2013-11-09 20:18:00,55.6,44.1,30.14,ENE,63,0.0,0.0,65,0.00,,,0.00,0.0,meteohub,2013-11-10 04:18:00,
2013-11-09 20:24:00,55.6,44.4,30.14,ENE,63,0.0,1.0,66,0.00,,,0.00,0.0,meteohub,2013-11-10 04:24:00,
2013-11-09 20:29:00,55.6,44.1,30.14,ENE,63,0.0,1.0,65,0.00,,,0.00,0.0,meteohub,2013-11-10 04:29:00,
2013-11-09 20:34:00,55.6,44.1,30.14,ENE,63,0.0,1.0,65,0.00,,,0.00,0.0,meteohub,2013-11-10 04:34:00,
2013-11-09 20:39:00,55.6,43.5,30.15,ENE,63,0.0,1.0,64,0.00,,,0.00,0.0,meteohub,2013-11-10 04:39:00,
2013-11-09 20:44:00,55.2,43.7,30.14,ENE,63,0.0,1.0,65,0.00,,,0.00,0.0,meteohub,2013-11-10 04:44:00,
2013-11-09 20:49:00,55.2,44.1,30.14,ENE,63,0.0,0.0,66,0.00,,,0.00,0.0,meteohub,2013-11-10 04:49:00,
2013-11-09 20:52:00,55.0,43.9,30.14,ENE,63,0.0,0.0,66,0.00,,,0.00,0.0,meteohub,2013-11-10 04:52:00,
2013-11-09 20:54:00,55.0,43.9,30.14,ENE,63,0.0,0.0,66,0.00,,,0.00,0.0,meteohub,2013-11-10 04:54:00,
2013-11-09 20:59:00,54.9,43.7,30.14,ENE,63,0.0,0.0,66,0.00,,,0.00,0.0,meteohub,2013-11-10 04:59:00,
2013-11-09 21:01:00,54.9,43.7,30.14,ENE,63,0.0,0.0,66,0.00,,,0.00,0.0,meteohub,2013-11-10 05:01:00,
2013-11-09 21:02:00,54.9,43.7,30.14,ENE,63,0.0,0.0,66,0.00,,,0.00,0.0,meteohub,2013-11-10 05:02:00,
2013-11-09 21:03:00,54.9,44.1,30.14,ENE,63,0.0,0.0,67,0.00,,,0.00,0.0,meteohub,2013-11-10 05:03:00,
2013-11-09 21:08:00,54.7,43.9,30.15,ENE,63,0.0,0.0,67,0.00,,,0.00,0.0,meteohub,2013-11-10 05:08:00,
2013-11-09 21:13:00,54.1,43.3,30.15,ENE,63,0.0,0.0,67,0.00,,,0.00,0.0,meteohub,2013-11-10 05:13:00,
2013-11-09 21:18:00,54.0,43.7,30.15,ENE,63,0.0,0.0,68,0.00,,,0.00,0.0,meteohub,2013-11-10 05:18:00,
2013-11-09 21:23:00,53.8,43.9,30.15,ENE,63,0.0,0.0,69,0.00,,,0.00,0.0,meteohub,2013-11-10 05:23:00,
2013-11-09 21:29:00,53.8,43.9,30.15,ENE,63,0.0,0.0,69,0.00,,,0.00,0.0,meteohub,2013-11-10 05:29:00,
2013-11-09 21:34:00,53.8,43.9,30.15,ENE,63,0.0,0.0,69,0.00,,,0.00,0.0,meteohub,2013-11-10 05:34:00,
2013-11-09 21:39:00,53.8,43.5,30.16,ENE,63,0.0,0.0,68,0.00,,,0.00,0.0,meteohub,2013-11-10 05:39:00,
2013-11-09 21:44:00,53.6,43.7,30.16,ENE,63,0.0,0.0,69,0.00,,,0.00,0.0,meteohub,2013-11-10 05:44:00,
2013-11-09 21:49:00,53.4,43.5,30.16,ENE,63,0.0,0.0,69,0.00,,,0.00,0.0,meteohub,2013-11-10 05:49:00,
2013-11-09 21:54:00,53.4,43.2,30.16,ENE,63,0.0,0.0,68,0.00,,,0.00,0.0,meteohub,2013-11-10 05:54:00,
2013-11-09 21:59:00,53.2,43.0,30.16,ENE,63,0.0,0.0,68,0.00,,,0.00,0.0,meteohub,2013-11-10 05:59:00,
2013-11-09 22:04:00,53.1,43.2,30.17,ENE,63,0.0,0.0,69,0.00,,,0.00,0.0,meteohub,2013-11-10 06:04:00,
2013-11-09 22:09:00,52.9,43.0,30.17,ENE,63,0.0,0.0,69,0.00,,,0.00,0.0,meteohub,2013-11-10 06:09:00,
2013-11-09 22:14:00,52.5,43.0,30.17,ENE,63,0.0,0.0,70,0.00,,,0.00,0.0,meteohub,2013-11-10 06:14:00,
2013-11-09 22:19:00,52.3,42.8,30.16,ENE,63,0.0,0.0,70,0.00,,,0.00,0.0,meteohub,2013-11-10 06:19:00,
2013-11-09 22:24:00,52.2,43.3,30.16,ESE,109,1.0,0.0,72,0.00,,,0.00,0.0,meteohub,2013-11-10 06:24:00,
2013-11-09 22:29:00,52.2,43.3,30.16,ESE,111,0.0,1.0,72,0.00,,,0.00,0.0,meteohub,2013-11-10 06:29:00,
2013-11-09 22:35:00,52.2,43.7,30.17,ESE,111,0.0,1.0,73,0.00,,,0.00,0.0,meteohub,2013-11-10 06:35:00,
2013-11-09 22:40:00,52.3,44.2,30.17,SW,227,0.0,1.0,74,0.00,,,0.00,0.0,meteohub,2013-11-10 06:40:00,
2013-11-09 22:45:00,52.3,43.9,30.17,SW,227,0.0,3.0,73,0.00,,,0.00,0.0,meteohub,2013-11-10 06:45:00,
2013-11-09 22:50:00,52.5,44.1,30.17,SW,227,0.0,3.0,73,0.00,,,0.00,0.0,meteohub,2013-11-10 06:50:00,
2013-11-09 22:55:00,52.5,44.1,30.17,SW,227,0.0,1.0,73,0.00,,,0.00,0.0,meteohub,2013-11-10 06:55:00,
2013-11-09 23:00:00,52.5,44.1,30.17,SSW,202,1.0,1.0,73,0.00,,,0.00,0.0,meteohub,2013-11-10 07:00:00,
2013-11-09 23:05:00,52.7,44.2,30.17,WSW,248,0.0,3.0,73,0.00,,,0.00,0.0,meteohub,2013-11-10 07:05:00,
2013-11-09 23:10:00,52.9,44.8,30.17,SW,225,0.0,3.0,74,0.00,,,0.00,0.0,meteohub,2013-11-10 07:10:00,
2013-11-09 23:15:00,52.9,44.4,30.17,SW,225,0.0,3.0,73,0.00,,,0.00,0.0,meteohub,2013-11-10 07:15:00,
2013-11-09 23:20:00,52.9,44.8,30.17,SW,225,0.0,3.0,74,0.00,,,0.00,0.0,meteohub,2013-11-10 07:20:00,
2013-11-09 23:25:00,52.9,44.8,30.17,SW,225,0.0,1.0,74,0.00,,,0.00,0.0,meteohub,2013-11-10 07:25:00,
2013-11-09 23:30:00,52.9,45.1,30.16,SW,225,0.0,0.0,75,0.00,,,0.00,0.0,meteohub,2013-11-10 07:30:00,
2013-11-09 23:35:00,52.9,44.8,30.16,SW,225,0.0,0.0,74,0.00,,,0.00,0.0,meteohub,2013-11-10 07:35:00,
2013-11-09 23:41:00,52.9,44.8,30.17,SW,225,0.0,0.0,74,0.00,,,0.00,0.0,meteohub,2013-11-10 07:41:00,
2013-11-09 23:46:00,52.7,44.6,30.17,SW,225,0.0,0.0,74,0.00,,,0.00,0.0,meteohub,2013-11-10 07:46:00,
2013-11-09 23:51:00,52.5,44.4,30.17,SW,225,0.0,1.0,74,0.00,,,0.00,0.0,meteohub,2013-11-10 07:51:00,
2013-11-09 23:56:00,52.3,44.6,30.17,SW,225,0.0,1.0,75,0.00,,,0.00,0.0,meteohub,2013-11-10 07:56:00,